Location: Newark
(35.9250°N, 105.0090°W)
Time: 16:29:24
(UTC+00:00)

ISS - Visible Passes

Search period start: 26 September 2020 00:00
Search period end: 06 October 2020 00:00
Orbit: 419 x 421 km, 51.6° (Epoch: 27 September)

Date Brightness Start Highest point End Pass type
(mag) Time Alt. Az. Time Alt. Az. Time Alt. Az.
02 Oct -0.8 02:53:02 10° NNW 02:53:30 13° NNW 02:53:30 13° NNW visible
03 Oct -1.7 02:06:06 10° NNW 02:08:06 17° NNE 02:08:06 17° NNE visible
04 Oct -1.4 01:19:23 10° N 01:20:54 12° NNE 01:22:25 10° NE visible
04 Oct -1.0 02:54:51 10° NW 02:55:45 17° NW 02:55:45 17° NW visible
05 Oct -3.0 02:07:38 10° NW 02:10:30 39° NNE 02:10:30 39° NNE visible
